User: anonymous   Login
Location: Arcones
(41.1182°N, 3.7238°W)
Time: 07:47:05
(UTC+00:00)
Language:

Meteor 1-5 Rocket - Orbit

View from above orbital plane
View from above orbital plane
View from above satellite
View from above satellite

Ground track
Ground track

The orbit is defined by the following mean orbital elements,

1 04420U          26044.70008929 +.00000000 +00000-0 +28995-4 0 00001
2 04420  81.2305 117.8443 0085942 260.6497  98.4950 14.12603717    08
Epoch (UTC): 13 February 2026 16:48:07
Eccentricity: 0.0085942
inclination: 81.2305°
perigee height: 788 km
apogee height: 913 km
right ascension of ascending node: 117.8443°
argument of perigee: 260.6497°
revolutions per day: 14.12603717
mean anomaly at epoch: 98.4950°

The dashed part of the orbit path shows where the satellite is in the earth's shadow,  

DLR